ContactaLinksHome
    
DADES METEOROLÒGIQUES DE LES ÚLTIMES 24 HORES
 

Taire  Temperatura de l'aire  (ºC)
HumitatR  Humitat relativa de l'aire (%)
Pluja  Litres de pluja per metre cuadrat caiguts en 10 minuts (l/m²)
VelVent  Velocitat mitjana del vent (m/s)
DirVent  Direcció del vent  (º)
RadSolar  Intensitat de Radiació solar (w/m²)
PressAtm  Pressió atmosfèrica (mb)
  ***Dades sense verificar
DataTaireHumitatRPlujaVelVentDirVentRadSolarPressAtm
21/08/2018 8:40:0027.6440,02.12695691016
21/08/2018 8:30:0027.0450,02.32725311016
21/08/2018 8:20:0026.6470,02.42804821016
21/08/2018 8:10:0026.3490,02.52885221016
21/08/2018 8:00:0025.8500,02.62773871016
21/08/2018 7:50:0025.6510,02.62863611016
21/08/2018 7:40:0025.4520,02.62932671016
21/08/2018 7:30:0025.3540,02.42873181016
21/08/2018 7:20:0025.1550,01.93063381016
21/08/2018 7:10:0024.7560,02.43012291016
21/08/2018 7:00:0024.5570,02.43282181016
21/08/2018 6:50:0024.4570,02.73012181016
21/08/2018 6:40:0024.2580,02.73081891016
21/08/2018 6:30:0024.0590,02.72991351016
21/08/2018 6:20:0023.8610,02.3296941016
21/08/2018 6:10:0023.7620,02.3304711016
21/08/2018 6:00:0023.7630,02.0301511016
21/08/2018 5:50:0023.8630,01.8314341016
21/08/2018 5:40:0023.7630,01.2300211016
21/08/2018 5:30:0023.7640,01.230891016
21/08/2018 5:20:0023.7640,01.027341015
21/08/2018 5:10:0023.7640,01.630711015
21/08/2018 5:00:0023.7640,01.328101015
21/08/2018 4:50:0023.8640,01.327801015
21/08/2018 4:40:0023.9640,01.230501015
21/08/2018 4:30:0024.2630,01.526301015
21/08/2018 4:20:0024.3620,00.525001015
21/08/2018 4:10:0024.4610,01.429801015
21/08/2018 4:00:0024.3600,02.232301015
21/08/2018 3:50:0024.4600,02.931901015
21/08/2018 3:40:0024.4620,02.433001015
21/08/2018 3:30:0024.5610,02.333901015
21/08/2018 3:20:0024.4630,03.033401015
21/08/2018 3:10:0024.1630,03.733001015
21/08/2018 3:00:0024.2640,02.931201015
21/08/2018 2:50:0024.3640,02.933101015
21/08/2018 2:40:0024.4650,03.030501015
21/08/2018 2:30:0024.5660,01.528001015
21/08/2018 2:20:0024.5660,01.430801015
21/08/2018 2:10:0024.9660,01.728501015
21/08/2018 2:00:0025.2640,01.427601015
21/08/2018 1:50:0025.3630,01.133301015
21/08/2018 1:40:0025.4630,00.934801015
21/08/2018 1:30:0025.3630,01.634001015
21/08/2018 1:20:0025.3640,01.831401015
21/08/2018 1:10:0025.1650,01.325301015
21/08/2018 1:00:0025.0660,01.427201016
21/08/2018 0:50:0025.0670,01.434201016
21/08/2018 0:40:0025.0660,01.126701016
21/08/2018 0:30:0025.1660,01.629801016
21/08/2018 0:20:0025.5650,01.427201016
21/08/2018 0:10:0025.6640,01.634001016
21/08/2018 0:00:0025.5640,03.031601016
20/08/2018 23:50:0025.5640,02.131801016
20/08/2018 23:40:0025.4640,01.832101016
20/08/2018 23:30:0025.4650,01.629001016
20/08/2018 23:20:0025.4670,01.528101016
20/08/2018 23:10:0025.3680,01.733801016
20/08/2018 23:00:0025.3690,01.933901016
20/08/2018 22:50:0025.4690,02.533801016
20/08/2018 22:40:0025.5690,02.233101016
20/08/2018 22:30:0025.5710,01.934901016
20/08/2018 22:20:0026.0740,00.735501016
20/08/2018 22:10:0026.0730,00.625201016
20/08/2018 22:00:0026.1730,01.726001016
20/08/2018 21:50:0026.1720,01.924301016
20/08/2018 21:40:0026.1710,01.322401017
20/08/2018 21:30:0026.1700,01.123601017
20/08/2018 21:20:0026.1690,00.921801017
20/08/2018 21:10:0026.0690,00.423801017
20/08/2018 21:00:0026.0690,00.316901017
20/08/2018 20:50:0025.9710,00.52001017
20/08/2018 20:40:0025.9730,00.733501017
20/08/2018 20:30:0025.9740,00.92301017
20/08/2018 20:20:0025.8750,01.43501017
20/08/2018 20:10:0025.7760,01.23401016
20/08/2018 20:00:0025.7760,01.17001016
20/08/2018 19:50:0025.8760,01.27501016
20/08/2018 19:40:0025.7760,01.67501016
20/08/2018 19:30:0025.7760,01.77501016
20/08/2018 19:20:0025.8760,01.86601016
20/08/2018 19:10:0025.8760,02.17401016
20/08/2018 19:00:0025.8760,02.57701016
20/08/2018 18:50:0025.8760,03.07621016
20/08/2018 18:40:0025.9760,03.27461016
20/08/2018 18:30:0025.9750,03.475131016
20/08/2018 18:20:0026.0750,03.682291016
20/08/2018 18:10:0026.2750,04.077551016
20/08/2018 18:00:0026.2760,04.171791016
20/08/2018 17:50:0026.3760,04.0731051015
20/08/2018 17:40:0026.3770,04.0761341015
20/08/2018 17:30:0026.2770,03.5891681015
20/08/2018 17:20:0026.1750,04.01192001015
20/08/2018 17:10:0026.1750,03.81142301015
20/08/2018 17:00:0026.1750,03.81172591015
20/08/2018 16:50:0026.0750,03.81122891015
20/08/2018 16:40:0026.0760,03.61093181015
20/08/2018 16:30:0026.0760,03.21123491015
20/08/2018 16:20:0026.0770,03.51173781015
20/08/2018 16:10:0026.0760,04.11084071015
20/08/2018 16:00:0025.9770,04.51094341016
20/08/2018 15:50:0025.8780,04.91084601016
20/08/2018 15:40:0025.8770,05.21034871016
20/08/2018 15:30:0025.8760,05.51005121016
20/08/2018 15:20:0025.9750,05.6965451016
20/08/2018 15:10:0025.9740,05.9925641016
20/08/2018 15:00:0026.0740,05.8965951016
20/08/2018 14:50:0025.9710,05.9906241016
20/08/2018 14:40:0025.9730,05.5866481016
20/08/2018 14:30:0025.9760,05.11016741016
20/08/2018 14:20:0025.9770,04.41136961016
20/08/2018 14:10:0025.8780,04.21057241016
20/08/2018 14:00:0026.0770,03.81037431016
20/08/2018 13:50:0025.9760,02.91217641016
20/08/2018 13:40:0025.8770,02.71487831016
20/08/2018 13:30:0025.9770,02.61448011016
20/08/2018 13:20:0025.9750,02.91488131016
20/08/2018 13:10:0026.1720,02.61518221016
20/08/2018 13:00:0026.1710,01.81678351016
20/08/2018 12:50:0026.1710,01.91668431016
20/08/2018 12:40:0026.0710,02.41658511016
20/08/2018 12:30:0025.9710,02.81828571016
20/08/2018 12:20:0025.7720,04.21918651016
20/08/2018 12:10:0025.7730,04.31928641016
20/08/2018 12:00:0025.8710,03.71928621016
20/08/2018 11:50:0025.8710,03.51948581017
20/08/2018 11:40:0025.8700,03.11908491017
20/08/2018 11:30:0025.9720,02.31688481017
20/08/2018 11:20:0025.9720,01.71658531017
20/08/2018 11:10:0025.8720,02.31878571017
20/08/2018 11:00:0025.7700,03.41908571017
20/08/2018 10:50:0025.6690,03.71818491017
20/08/2018 10:40:0025.6670,03.71828361017
20/08/2018 10:30:0025.7650,03.21738301017
20/08/2018 10:20:0025.8650,03.41668111017
20/08/2018 10:10:0026.2650,03.51658011017
20/08/2018 10:00:0027.0620,01.91927831017
20/08/2018 9:50:0029.0560,01.5177681017
20/08/2018 9:40:0028.9400,02.63207451017
20/08/2018 9:30:0028.8410,02.62987201017
20/08/2018 9:20:0028.6420,02.13366931017
20/08/2018 9:10:0028.1440,02.72756661017
20/08/2018 9:00:0027.7440,02.52956371017
20/08/2018 8:50:0027.5450,02.82816061017

ÚLTIMES FOTOS WEBCAM
Imatges del Pont
ÚLTIMES DADES

21/08/2018  
10:40h Local  (8:40 GMT)
 
 Velocitat mitjana del Vent
   2,1 m/s
 Direcció del Vent
   269º
 Humitat Relativa
   44 %
 Temperatura Aparent
   27,4 ºC
 Pluja Acumulada
   Pluja
   Index UV    IndexUV
 Temperatura de l'aigua    N/A
 Alçada d'ona    N/A
 Direcció d'ona    N/A
 Velocitat del corrent    N/A
 Direcció del corrent    N/A